Overview Statistics Trail Chart Weather Telemetry Raw packets
 

This is the latest recevied weather packets stored in our database for station/object DC9VQ-13. If no packets are shown the sender has not sent any weather packets the latest 10 day(s).

<< 40 41 42 43 44 45 46 >>
Time Temp. Humidity Pressure Rain* Wind** Luminosity Snow
1788011519 25° C 55% 1014.3 hPa 0 mm - - -
1788010916 25° C 55% 1014.3 hPa 0 mm - - -
1788010315 25° C 56% 1014.4 hPa 0 mm - - -
1788009713 24.44° C 57% 1014.4 hPa 0 mm - - -
1788009110 24.44° C 56% 1014.5 hPa 0 mm - - -
1788008508 24.44° C 57% 1014.5 hPa 0 mm - - -
1788007906 24.44° C 56% 1014.5 hPa 0 mm - - -
1788007304 24.44° C 59% 1014.6 hPa 0 mm - - -
1788006702 23.89° C 57% 1014.8 hPa 0 mm - - -
1788006100 23.89° C 59% 1014.8 hPa 0 mm - - -
1788005499 23.89° C 60% 1014.8 hPa 0 mm - - -
1788004895 23.89° C 61% 1014.9 hPa 0 mm - - -
1788004294 23.89° C 62% 1015 hPa 0 mm - - -
1788003692 23.33° C 63% 1015 hPa 0 mm - - -
1788003090 23.33° C 64% 1015 hPa 0 mm - - -
1788002488 23.33° C 66% 1015 hPa 0 mm - - -
1788001887 22.78° C 67% 1015.1 hPa 0 mm - - -
1788001284 22.78° C 68% 1015.2 hPa 0 mm - - -
1788000682 22.22° C 68% 1015.1 hPa 0 mm - - -
1788000080 22.22° C 72% 1015.3 hPa 0 mm - - -
1787999478 22.22° C 72% 1015.4 hPa 0 mm - - -
1787998876 21.67° C 74% 1015.5 hPa 0 mm - - -
1787998273 21.67° C 75% 1015.5 hPa 0 mm - - -
1787997672 21.11° C 77% 1015.7 hPa 0 mm - - -
1787997069 20.56° C 78% 1015.8 hPa 0 mm - - -

* Rain latest hour (hover to see other rain measurements)
** Current wind speed in m/s (hover to see current wind gust speed)